Flight Track Log - Related Links

Times and Time Zones

All times are in EDT time to prevent confusion due to time zone crossing. See the ASH3777 flight status page for this flight to view local times or setup timezone preferences in your user account.

Time Position Orientation Groundspeed Altitude Reporting Facility
EDT Latitude Longitude Course Direction KTS MPH feet Rate Location/Type
08:38AM 38.8833 -77.4333 201° Southwest 218 251 2,800  Level Potomac TRACON
08:39AM 38.8167 -77.4333 180° South 245 282 5,600 2,529 Climbing Potomac TRACON
08:40AM 38.7333 -77.4167 171° South 256 295 7,900 2,452 Climbing Potomac TRACON
08:41AM 38.5730 -77.6282 189° South  Level Estimated
08:41AM 38.6667 -77.4333 191° South 266 306 10,300  Level Potomac TRACON
08:42AM 38.4793 -77.6700 185° South  Level Estimated
08:43AM 38.3857 -77.7117 218° Southwest  Level Estimated
08:43AM 38.5503 -77.4925 202° Southwest 323 372 12,400  Level Washington Center
08:44AM 38.2920 -77.7533 201° Southwest  Level Estimated
08:44AM 38.4578 -77.5378 201° Southwest 341 392 14,100  Level Washington Center
08:45AM 38.3608 -77.5989 206° Southwest 362 417 15,800 1,785 Climbing Washington Center
08:46AM 38.2719 -77.6758 214° Southwest 381 438 17,700 1,587 Climbing Washington Center
08:47AM 38.1744 -77.7603 214° Southwest 391 450 19,000 1,563 Climbing Washington Center
08:48AM 38.0833 -77.8367 213° Southwest 397 457 20,800 1,462 Climbing Washington Center
08:49AM 37.9922 -77.9131 213° Southwest 402 463 21,900 590 Climbing Washington Center
08:50AM 37.9011 -77.9919 214° Southwest 402 463 22,000 50 Climbing Washington Center
08:51AM 37.8033 -78.0756 214° Southwest 407 468 22,000  Level Washington Center
08:52AM 37.7100 -78.1539 214° Southwest 407 468 22,000  Level Washington Center
08:53AM 37.6292 -78.2244 215° Southwest 407 468 22,000  Level Washington Center
08:54AM 37.5231 -78.3125 213° Southwest 407 468 22,000  Level Washington Center
08:55AM 37.4294 -78.3928 214° Southwest 407 468 22,000  Level Washington Center
08:56AM 37.3336 -78.4703 213° Southwest 407 468 22,000  Level Washington Center
08:57AM 37.2378 -78.5475 213° Southwest 407 468 22,000  Level Washington Center
08:58AM 37.1464 -78.6247 214° Southwest 407 468 22,000  Level Washington Center
08:59AM 37.0611 -78.6944 213° Southwest 407 468 22,000  Level Washington Center
09:00AM 36.9692 -78.7711 214° Southwest 407 468 22,000 -149 Level Washington Center
09:01AM 36.8714 -78.8400 209° Southwest 407 468 21,700 -1,160 Descending Washington Center
09:02AM 36.7603 -78.8639 190° South 391 450 19,700 -2,118 Descending Washington Center
09:03AM 36.6489 -78.8875 190° South 384 442 17,500 -2,211 Descending Washington Center
09:03AM 36.6175 -78.8939 189° South 378 435 16,900 -2,500 Descending Washington Center
09:04AM 36.5378 -78.9086 188° South 384 442 15,000 -2,471 Descending Washington Center
09:05AM 36.4686 -78.9239 190° South 392 451 13,400 -2,542 Descending Washington Center
09:05AM 36.4328 -78.9325 191° South 389 448 12,500 -2,239 Descending Washington Center
09:06AM 36.3497 -78.9239 175° South 369 425 10,900 -1,770 Descending Washington Center
09:06AM 36.3311 -78.9153 160° South 377 434 10,700 -831 Descending Washington Center
09:07AM 36.2586 -78.8969 168° South 291 335 10,000 -766 Descending Washington Center
09:07AM 36.2069 -78.8817 167° South 255 293 9,500 -957 Descending Washington Center
09:08AM 36.1800 -78.8731 166° South 276 318 8,900 -1,377 Descending Washington Center
09:08AM 36.1386 -78.8636 170° South 235 270 8,100 -931 Descending Washington Center
09:09AM 36.1158 -78.8575 168° South 250 288 8,000 -98 Descending Washington Center
09:09AM 36.0722 -78.8453 167° South 232 267 8,000  Level Washington Center
09:10AM 36.0494 -78.8419 173° South 243 280 8,000  Level Washington Center
09:10AM 36.0078 -78.8400 178° South 235 270 8,000 -492 Level Washington Center
09:11AM 35.9867 -78.8444 190° South 237 273 7,500 -1,309 Descending Washington Center
09:11AM 35.9528 -78.8661 207° Southwest 232 267 6,800 -1,448 Descending Washington Center
09:12AM 35.9314 -78.8831 213° Southwest 225 259 6,100 -1,791 Descending Washington Center
09:13AM 35.9014 -78.9153 221° Southwest 219 252 4,800 -1,800 Descending Washington Center
09:13AM 35.8883 -78.9353 231° Southwest 220 253 4,300 -1,667 Descending Washington Center
09:13AM 35.8644 -78.9625 223° Southwest 206 237 3,300 -1,361 Descending Washington Center
09:14AM 35.8214 -79.0144 224° Southwest 220 253 2,100 -493 Descending Washington Center
09:16AM 35.7453 -79.0494 200° South 194 223 2,100  Level Washington Center
09:17AM 35.7572 -78.9911 76° East 171 197 2,100  Level Washington Center
09:18AM 35.7794 -78.9461 59° Northeast 166 191 2,100  Level Washington Center
09:19AM 35.8017 -78.8958 61° Northeast 167 192 2,100 -55 Level Washington Center
09:20AM 35.8233 -78.8683 46° Northeast 131 151 2,000 -541 Descending Washington Center
09:21AM 35.8514 -78.8286 49° Northeast 129 148 1,000 -822 Descending Washington Center

Login

Don't have an account? Register now (free) for customized features, flight alerts, and more!